Time,TemperatureF,DewpointF,PressureIn,WindDirection,WindDirectionDegrees,WindSpeedMPH,WindSpeedGustMPH,Humidity,HourlyPrecipIn,Conditions,Clouds,dailyrainin,SolarRadiationWatts/m^2,SoftwareType,DateUTC
2013-03-30 00:02:00,36.4,16.0,30.24,NNW,332,0.0,0.0,46,0.00,,,0.00,0,TxWx,2013-03-30 05:02:00,
2013-03-30 00:07:00,36.0,16.0,30.24,NNW,331,0.9,0.9,46,0.00,,,0.00,0,TxWx,2013-03-30 05:07:00,
2013-03-30 00:13:00,36.0,16.0,30.24,NNW,329,0.3,0.6,46,0.00,,,0.00,0,TxWx,2013-03-30 05:13:00,
2013-03-30 00:18:00,36.0,16.0,30.24,NNW,329,0.6,0.6,46,0.00,,,0.00,0,TxWx,2013-03-30 05:18:00,
2013-03-30 00:23:00,36.0,16.0,30.24,North,355,0.9,0.9,46,0.00,,,0.00,0,TxWx,2013-03-30 05:23:00,
2013-03-30 00:28:00,35.9,16.0,30.24,North,10,0.3,0.6,47,0.00,,,0.00,0,TxWx,2013-03-30 05:28:00,
2013-03-30 00:33:00,35.6,17.0,30.24,North,10,0.0,0.0,48,0.00,,,0.00,0,TxWx,2013-03-30 05:33:00,
2013-03-30 00:39:00,35.2,17.0,30.24,North,349,1.2,1.2,49,0.00,,,0.00,0,TxWx,2013-03-30 05:39:00,
2013-03-30 00:44:00,35.2,17.0,30.24,NNW,340,0.9,1.2,49,0.00,,,0.00,0,TxWx,2013-03-30 05:44:00,
2013-03-30 00:49:00,35.1,17.0,30.24,NNW,341,0.3,0.6,50,0.00,,,0.00,0,TxWx,2013-03-30 05:49:00,
2013-03-30 00:54:00,34.9,17.0,30.24,NNW,340,0.6,0.6,50,0.00,,,0.00,0,TxWx,2013-03-30 05:54:00,
2013-03-30 00:59:00,35.1,17.0,30.24,NNW,337,0.9,0.9,51,0.00,,,0.00,0,TxWx,2013-03-30 05:59:00,
2013-03-30 01:05:00,35.3,17.0,30.24,NNW,327,1.2,1.5,51,0.00,,,0.00,0,TxWx,2013-03-30 06:05:00,
2013-03-30 01:10:00,35.3,17.0,30.24,NW,325,0.3,0.6,51,0.00,,,0.00,0,TxWx,2013-03-30 06:10:00,
2013-03-30 01:15:00,35.2,17.0,30.25,NNW,338,0.6,0.9,51,0.00,,,0.00,0,TxWx,2013-03-30 06:15:00,
2013-03-30 01:20:00,35.1,18.0,30.24,North,5,3.0,3.3,51,0.00,,,0.00,0,TxWx,2013-03-30 06:20:00,
2013-03-30 01:25:00,35.3,17.0,30.24,North,5,3.0,3.3,51,0.00,,,0.00,0,TxWx,2013-03-30 06:25:00,
2013-03-30 01:30:00,35.4,17.0,30.24,North,353,1.5,1.5,51,0.00,,,0.00,0,TxWx,2013-03-30 06:30:00,
2013-03-30 01:36:00,35.4,17.0,30.24,NNE,19,0.3,0.6,51,0.00,,,0.00,0,TxWx,2013-03-30 06:36:00,
2013-03-30 01:41:00,35.2,17.0,30.24,North,5,1.5,1.5,51,0.00,,,0.00,0,TxWx,2013-03-30 06:41:00,
2013-03-30 01:46:00,35.2,17.0,30.24,North,8,1.2,1.2,51,0.00,,,0.00,0,TxWx,2013-03-30 06:46:00,
2013-03-30 01:51:00,35.2,17.0,30.24,NNE,23,1.2,1.5,51,0.00,,,0.00,0,TxWx,2013-03-30 06:51:00,
2013-03-30 01:56:00,35.2,18.0,30.24,NNE,27,1.2,1.5,51,0.00,,,0.00,0,TxWx,2013-03-30 06:56:00,
2013-03-30 02:02:00,35.1,17.0,30.24,North,6,0.3,0.3,51,0.00,,,0.00,0,TxWx,2013-03-30 07:02:00,
2013-03-30 02:07:00,34.7,18.0,30.24,North,6,0.0,0.0,52,0.00,,,0.00,0,TxWx,2013-03-30 07:07:00,
2013-03-30 02:12:00,34.4,17.0,30.24,North,6,0.0,0.0,52,0.00,,,0.00,0,TxWx,2013-03-30 07:12:00,
2013-03-30 02:17:00,33.9,18.0,30.24,North,6,0.0,0.0,53,0.00,,,0.00,0,TxWx,2013-03-30 07:17:00,
2013-03-30 02:22:00,33.6,18.0,30.24,North,6,0.0,0.0,54,0.00,,,0.00,0,TxWx,2013-03-30 07:22:00,
2013-03-30 02:28:00,33.5,18.0,30.23,North,7,0.9,0.9,55,0.00,,,0.00,0,TxWx,2013-03-30 07:28:00,
2013-03-30 02:33:00,33.8,18.0,30.23,NNE,20,1.2,1.5,55,0.00,,,0.00,0,TxWx,2013-03-30 07:33:00,
2013-03-30 02:38:00,34.0,18.0,30.23,NNE,22,1.2,1.5,54,0.00,,,0.00,0,TxWx,2013-03-30 07:38:00,
2013-03-30 02:43:00,33.9,18.0,30.23,NNE,20,0.0,0.0,54,0.00,,,0.00,0,TxWx,2013-03-30 07:43:00,
2013-03-30 02:48:00,33.7,18.0,30.23,NNE,20,0.0,0.0,54,0.00,,,0.00,0,TxWx,2013-03-30 07:48:00,
2013-03-30 02:54:00,33.4,18.0,30.23,NNE,20,0.0,0.0,55,0.00,,,0.00,0,TxWx,2013-03-30 07:54:00,
2013-03-30 02:59:00,33.0,18.0,30.23,NNE,20,0.0,0.0,57,0.00,,,0.00,0,TxWx,2013-03-30 07:59:00,
2013-03-30 03:04:00,32.8,19.0,30.22,NNE,21,0.9,0.9,58,0.00,,,0.00,0,TxWx,2013-03-30 08:04:00,
2013-03-30 03:09:00,32.7,19.0,30.22,NNE,21,0.0,0.0,60,0.00,,,0.00,0,TxWx,2013-03-30 08:09:00,
2013-03-30 03:14:00,32.5,18.0,30.22,NNE,21,0.6,0.6,58,0.00,,,0.00,0,TxWx,2013-03-30 08:14:00,
2013-03-30 03:19:00,32.5,18.0,30.22,NNE,21,0.6,0.9,59,0.00,,,0.00,0,TxWx,2013-03-30 08:19:00,
2013-03-30 03:25:00,32.5,19.0,30.21,NE,37,0.9,0.9,59,0.00,,,0.00,0,TxWx,2013-03-30 08:25:00,
2013-03-30 03:30:00,32.6,19.0,30.21,ENE,72,1.2,1.2,58,0.00,,,0.00,0,TxWx,2013-03-30 08:30:00,
2013-03-30 03:35:00,32.9,18.0,30.21,ENE,76,0.9,1.2,56,0.00,,,0.00,0,TxWx,2013-03-30 08:35:00,
2013-03-30 03:41:00,33.1,18.0,30.21,ENE,71,0.3,0.6,55,0.00,,,0.00,0,TxWx,2013-03-30 08:41:00,
2013-03-30 03:46:00,33.0,18.0,30.21,ENE,71,0.0,0.0,55,0.00,,,0.00,0,TxWx,2013-03-30 08:46:00,
2013-03-30 03:51:00,32.8,18.0,30.21,ENE,71,1.2,1.2,57,0.00,,,0.00,0,TxWx,2013-03-30 08:51:00,
2013-03-30 03:56:00,32.7,18.0,30.21,ENE,71,0.9,0.9,57,0.00,,,0.00,0,TxWx,2013-03-30 08:56:00,
2013-03-30 04:02:00,32.8,19.0,30.20,ENE,75,2.1,2.1,58,0.00,,,0.00,0,TxWx,2013-03-30 09:02:00,
2013-03-30 04:07:00,32.8,18.0,30.20,ENE,63,1.5,1.5,56,0.00,,,0.00,0,TxWx,2013-03-30 09:07:00,
2013-03-30 04:12:00,33.5,17.0,30.20,ENE,75,2.1,2.1,53,0.00,,,0.00,0,TxWx,2013-03-30 09:12:00,
2013-03-30 04:17:00,34.0,17.0,30.20,East,83,1.8,1.8,52,0.00,,,0.00,0,TxWx,2013-03-30 09:17:00,
2013-03-30 04:22:00,34.4,17.0,30.20,East,85,1.8,1.8,51,0.00,,,0.00,0,TxWx,2013-03-30 09:22:00,
2013-03-30 04:28:00,34.2,17.0,30.20,East,80,2.1,2.1,51,0.00,,,0.00,0,TxWx,2013-03-30 09:28:00,
2013-03-30 04:33:00,34.2,17.0,30.20,East,93,0.6,0.9,51,0.00,,,0.00,0,TxWx,2013-03-30 09:33:00,
2013-03-30 04:37:00,34.0,17.0,30.20,ENE,75,1.5,1.8,52,0.00,,,0.00,0,TxWx,2013-03-30 09:37:00,
2013-03-30 04:43:00,33.7,18.0,30.20,ENE,64,1.5,1.5,53,0.00,,,0.00,0,TxWx,2013-03-30 09:43:00,
2013-03-30 04:48:00,33.7,17.0,30.21,ENE,66,2.1,2.1,52,0.00,,,0.00,0,TxWx,2013-03-30 09:48:00,
2013-03-30 04:53:00,33.9,17.0,30.21,ENE,72,1.2,1.2,52,0.00,,,0.00,0,TxWx,2013-03-30 09:53:00,
2013-03-30 04:58:00,34.0,17.0,30.21,East,88,1.2,1.2,51,0.00,,,0.00,0,TxWx,2013-03-30 09:58:00,
2013-03-30 05:03:00,34.0,17.0,30.21,East,90,0.9,0.9,51,0.00,,,0.00,0,TxWx,2013-03-30 10:03:00,
2013-03-30 05:08:00,34.0,17.0,30.22,ESE,106,0.3,0.6,51,0.00,,,0.00,0,TxWx,2013-03-30 10:08:00,
2013-03-30 05:14:00,33.8,17.0,30.22,ESE,107,1.2,1.5,51,0.00,,,0.00,0,TxWx,2013-03-30 10:14:00,
2013-03-30 05:19:00,33.5,17.0,30.22,ESE,123,0.9,1.2,52,0.00,,,0.00,0,TxWx,2013-03-30 10:19:00,
2013-03-30 05:24:00,33.4,17.0,30.22,East,87,1.2,1.5,53,0.00,,,0.00,0,TxWx,2013-03-30 10:24:00,
2013-03-30 05:29:00,33.0,17.0,30.22,East,86,0.6,0.6,55,0.00,,,0.00,0,TxWx,2013-03-30 10:29:00,
2013-03-30 05:34:00,32.9,17.0,30.22,ESE,108,0.9,0.9,55,0.00,,,0.00,0,TxWx,2013-03-30 10:34:00,
2013-03-30 05:40:00,33.0,17.0,30.22,ESE,111,0.9,0.9,54,0.00,,,0.00,0,TxWx,2013-03-30 10:40:00,
2013-03-30 05:45:00,33.1,17.0,30.22,ESE,111,0.6,0.9,54,0.00,,,0.00,0,TxWx,2013-03-30 10:45:00,
2013-03-30 05:50:00,33.0,18.0,30.22,ENE,70,0.9,0.9,55,0.00,,,0.00,0,TxWx,2013-03-30 10:50:00,
2013-03-30 05:55:00,32.8,18.0,30.22,ENE,78,1.8,1.8,55,0.00,,,0.00,0,TxWx,2013-03-30 10:55:00,
2013-03-30 06:01:00,32.9,17.0,30.22,East,80,1.8,1.8,54,0.00,,,0.00,0,TxWx,2013-03-30 11:01:00,
2013-03-30 06:06:00,32.9,17.0,30.21,ENE,71,1.5,1.8,55,0.00,,,0.00,0,TxWx,2013-03-30 11:06:00,
2013-03-30 06:11:00,32.9,17.0,30.21,ENE,69,1.2,1.5,54,0.00,,,0.00,0,TxWx,2013-03-30 11:11:00,
2013-03-30 06:16:00,32.9,17.0,30.21,East,81,2.1,2.1,54,0.00,,,0.00,0,TxWx,2013-03-30 11:16:00,
2013-03-30 06:21:00,32.9,17.0,30.21,East,85,2.1,2.1,54,0.00,,,0.00,0,TxWx,2013-03-30 11:21:00,
2013-03-30 06:27:00,33.0,17.0,30.21,East,80,2.7,3.0,54,0.00,,,0.00,2,TxWx,2013-03-30 11:27:00,
2013-03-30 06:32:00,32.9,17.0,30.20,East,84,2.4,2.4,54,0.00,,,0.00,4,TxWx,2013-03-30 11:32:00,
2013-03-30 06:37:00,33.0,17.0,30.20,East,84,2.7,2.7,54,0.00,,,0.00,6,TxWx,2013-03-30 11:37:00,
2013-03-30 06:42:00,33.1,17.0,30.20,East,90,2.4,2.4,53,0.00,,,0.00,18,TxWx,2013-03-30 11:42:00,
2013-03-30 06:47:00,33.2,17.0,30.20,East,99,3.0,3.0,53,0.00,,,0.00,20,TxWx,2013-03-30 11:47:00,
2013-03-30 06:52:00,33.3,17.0,30.19,East,87,2.1,2.4,53,0.00,,,0.00,31,TxWx,2013-03-30 11:52:00,
2013-03-30 06:58:00,33.2,17.0,30.20,East,96,3.3,3.6,53,0.00,,,0.00,72,TxWx,2013-03-30 11:58:00,
2013-03-30 07:03:00,33.4,17.0,30.20,East,81,3.3,3.3,53,0.00,,,0.00,89,TxWx,2013-03-30 12:03:00,
2013-03-30 07:08:00,33.5,17.0,30.19,ENE,78,3.0,3.0,52,0.00,,,0.00,105,TxWx,2013-03-30 12:08:00,
2013-03-30 07:13:00,33.7,17.0,30.19,East,100,3.3,3.3,52,0.00,,,0.00,122,TxWx,2013-03-30 12:13:00,
2013-03-30 07:18:00,33.9,17.0,30.19,East,97,2.1,2.7,52,0.00,,,0.00,138,TxWx,2013-03-30 12:18:00,
2013-03-30 07:24:00,34.2,17.0,30.19,East,79,2.1,2.1,52,0.00,,,0.00,155,TxWx,2013-03-30 12:24:00,
2013-03-30 07:29:00,34.5,17.0,30.19,SE,134,1.8,1.8,51,0.00,,,0.00,176,TxWx,2013-03-30 12:29:00,
2013-03-30 07:34:00,34.6,17.0,30.19,ESE,104,2.7,3.0,50,0.00,,,0.00,195,TxWx,2013-03-30 12:34:00,
2013-03-30 07:39:00,34.7,17.0,30.19,SE,141,4.5,4.5,50,0.00,,,0.00,213,TxWx,2013-03-30 12:39:00,
2013-03-30 07:44:00,35.2,17.0,30.19,SE,124,1.8,2.4,50,0.00,,,0.00,230,TxWx,2013-03-30 12:44:00,
2013-03-30 07:50:00,35.6,18.0,30.19,SE,133,2.4,3.0,49,0.00,,,0.00,248,TxWx,2013-03-30 12:50:00,
2013-03-30 07:55:00,35.8,18.0,30.19,SE,133,2.7,3.0,49,0.00,,,0.00,272,TxWx,2013-03-30 12:55:00,
2013-03-30 08:00:00,36.2,17.0,30.20,SE,127,2.7,3.0,49,0.00,,,0.00,271,TxWx,2013-03-30 13:00:00,
2013-03-30 08:05:00,36.6,18.0,30.20,ESE,123,3.0,3.0,49,0.00,,,0.00,297,TxWx,2013-03-30 13:05:00,
2013-03-30 08:10:00,37.0,19.0,30.20,East,97,3.6,3.6,49,0.00,,,0.00,321,TxWx,2013-03-30 13:10:00,
2013-03-30 08:16:00,37.9,20.0,30.19,SE,126,3.0,3.0,50,0.00,,,0.00,313,TxWx,2013-03-30 13:16:00,
2013-03-30 08:21:00,38.5,19.0,30.19,SSE,148,3.0,3.0,49,0.00,,,0.00,278,TxWx,2013-03-30 13:21:00,
2013-03-30 08:26:00,38.9,20.0,30.19,SE,124,3.9,4.5,49,0.00,,,0.00,308,TxWx,2013-03-30 13:26:00,
2013-03-30 08:31:00,39.6,21.0,30.19,SSE,168,4.2,4.2,49,0.00,,,0.00,319,TxWx,2013-03-30 13:31:00,
2013-03-30 08:36:00,40.4,21.0,30.19,SSW,203,1.2,1.5,48,0.00,,,0.00,355,TxWx,2013-03-30 13:36:00,
2013-03-30 08:41:00,40.4,20.0,30.18,SE,133,4.2,4.8,46,0.00,,,0.00,362,TxWx,2013-03-30 13:41:00,
2013-03-30 08:47:00,40.6,21.0,30.18,SSE,164,3.6,3.6,46,0.00,,,0.00,368,TxWx,2013-03-30 13:47:00,
2013-03-30 08:52:00,41.0,21.0,30.18,SW,218,1.2,1.5,46,0.00,,,0.00,365,TxWx,2013-03-30 13:52:00,
2013-03-30 08:57:00,41.5,21.0,30.18,SW,214,5.1,5.1,46,0.00,,,0.00,404,TxWx,2013-03-30 13:57:00,
2013-03-30 09:02:00,41.5,21.0,30.18,SSE,168,4.5,4.8,46,0.00,,,0.00,413,TxWx,2013-03-30 14:02:00,
2013-03-30 09:07:00,42.0,21.0,30.18,South,177,6.0,6.0,45,0.00,,,0.00,445,TxWx,2013-03-30 14:07:00,
2013-03-30 09:13:00,42.4,21.0,30.18,SSE,160,4.5,4.8,45,0.00,,,0.00,477,TxWx,2013-03-30 14:13:00,
2013-03-30 09:18:00,43.5,22.0,30.18,South,181,4.2,4.2,45,0.00,,,0.00,500,TxWx,2013-03-30 14:18:00,
2013-03-30 09:23:00,43.5,22.0,30.18,South,174,8.1,8.7,44,0.00,,,0.00,518,TxWx,2013-03-30 14:23:00,
2013-03-30 09:28:00,43.8,23.0,30.18,ESE,111,6.0,6.0,45,0.00,,,0.00,531,TxWx,2013-03-30 14:28:00,
2013-03-30 09:34:00,44.6,23.0,30.17,SSE,164,5.4,5.4,44,0.00,,,0.00,530,TxWx,2013-03-30 14:34:00,
2013-03-30 09:39:00,44.8,23.0,30.17,SE,139,4.5,5.1,43,0.00,,,0.00,542,TxWx,2013-03-30 14:39:00,
2013-03-30 09:44:00,45.2,23.0,30.17,SSE,168,3.0,3.6,44,0.00,,,0.00,560,TxWx,2013-03-30 14:44:00,
2013-03-30 09:49:00,45.3,23.0,30.17,South,172,8.4,8.7,44,0.00,,,0.00,571,TxWx,2013-03-30 14:49:00,
2013-03-30 09:55:00,46.1,24.0,30.17,SSE,158,1.8,2.1,44,0.00,,,0.00,587,TxWx,2013-03-30 14:55:00,
2013-03-30 10:00:00,46.2,24.0,30.16,ESE,110,3.3,3.9,44,0.00,,,0.00,593,TxWx,2013-03-30 15:00:00,
2013-03-30 10:05:00,46.3,24.0,30.16,SSW,197,8.1,8.7,44,0.00,,,0.00,581,TxWx,2013-03-30 15:05:00,
2013-03-30 10:10:00,46.9,25.0,30.16,SW,226,2.7,3.9,45,0.00,,,0.00,609,TxWx,2013-03-30 15:10:00,
2013-03-30 10:15:00,47.4,26.0,30.16,SSE,160,3.6,3.6,45,0.00,,,0.00,613,TxWx,2013-03-30 15:15:00,
2013-03-30 10:20:00,48.0,27.0,30.16,SSW,194,2.7,2.7,45,0.00,,,0.00,624,TxWx,2013-03-30 15:20:00,
2013-03-30 10:25:00,47.8,26.0,30.16,SSW,197,9.3,9.6,45,0.00,,,0.00,677,TxWx,2013-03-30 15:25:00,
2013-03-30 10:30:00,48.2,27.0,30.15,SE,141,3.3,3.3,46,0.00,,,0.00,692,TxWx,2013-03-30 15:30:00,
2013-03-30 10:36:00,48.9,28.0,30.15,SSW,207,4.2,4.2,46,0.00,,,0.00,625,TxWx,2013-03-30 15:36:00,
2013-03-30 10:41:00,49.4,27.0,30.15,SSW,192,5.7,5.7,45,0.00,,,0.00,680,TxWx,2013-03-30 15:41:00,
2013-03-30 10:46:00,50.4,28.0,30.15,SW,228,6.0,7.2,45,0.00,,,0.00,709,TxWx,2013-03-30 15:46:00,
2013-03-30 10:51:00,50.4,28.0,30.15,SW,216,9.0,9.3,45,0.00,,,0.00,740,TxWx,2013-03-30 15:51:00,
2013-03-30 10:57:00,51.7,31.0,30.14,West,263,5.7,5.7,46,0.00,,,0.00,726,TxWx,2013-03-30 15:57:00,
2013-03-30 11:02:00,51.0,30.0,30.14,SSW,207,7.8,7.8,46,0.00,,,0.00,727,TxWx,2013-03-30 16:02:00,
2013-03-30 11:07:00,51.4,29.0,30.14,SW,214,5.4,5.7,45,0.00,,,0.00,760,TxWx,2013-03-30 16:07:00,
2013-03-30 11:12:00,52.2,31.0,30.13,WSW,240,4.2,4.2,46,0.00,,,0.00,779,TxWx,2013-03-30 16:12:00,
2013-03-30 11:17:00,52.0,29.0,30.13,WSW,247,11.7,11.7,44,0.00,,,0.00,783,TxWx,2013-03-30 16:17:00,
2013-03-30 11:23:00,51.9,29.0,30.12,SW,236,6.6,8.1,44,0.00,,,0.00,777,TxWx,2013-03-30 16:23:00,
2013-03-30 11:28:00,53.2,31.0,30.12,SSW,206,9.0,9.0,44,0.00,,,0.00,798,TxWx,2013-03-30 16:28:00,
2013-03-30 11:33:00,53.2,30.0,30.12,SSW,193,9.0,11.1,43,0.00,,,0.00,759,TxWx,2013-03-30 16:33:00,
2013-03-30 11:38:00,53.3,30.0,30.12,SSW,195,7.8,7.8,43,0.00,,,0.00,758,TxWx,2013-03-30 16:38:00,
2013-03-30 11:43:00,53.3,29.0,30.12,SSW,196,9.3,10.5,42,0.00,,,0.00,811,TxWx,2013-03-30 16:43:00,
2013-03-30 11:49:00,53.2,30.0,30.12,SSW,195,5.7,6.0,43,0.00,,,0.00,757,TxWx,2013-03-30 16:49:00,
2013-03-30 11:54:00,52.9,29.0,30.12,West,266,6.6,6.6,41,0.00,,,0.00,663,TxWx,2013-03-30 16:54:00,
2013-03-30 11:59:00,53.5,29.0,30.11,South,178,9.9,14.1,41,0.00,,,0.00,627,TxWx,2013-03-30 16:59:00,
2013-03-30 12:04:00,53.4,29.0,30.11,WSW,254,8.7,8.7,41,0.00,,,0.00,571,TxWx,2013-03-30 17:04:00,
2013-03-30 12:09:00,53.5,29.0,30.11,SW,223,7.5,7.5,40,0.00,,,0.00,600,TxWx,2013-03-30 17:09:00,
2013-03-30 12:15:00,53.4,28.0,30.11,SSW,209,8.7,11.4,40,0.00,,,0.00,670,TxWx,2013-03-30 17:15:00,
2013-03-30 12:20:00,54.0,30.0,30.10,WNW,283,7.8,7.8,41,0.00,,,0.00,654,TxWx,2013-03-30 17:20:00,
2013-03-30 12:25:00,54.5,30.0,30.10,SW,231,5.1,6.0,41,0.00,,,0.00,653,TxWx,2013-03-30 17:25:00,
2013-03-30 12:30:00,53.8,29.0,30.10,SSW,195,9.3,9.3,40,0.00,,,0.00,650,TxWx,2013-03-30 17:30:00,
2013-03-30 12:35:00,54.6,31.0,30.10,SW,235,4.5,4.5,42,0.00,,,0.00,702,TxWx,2013-03-30 17:35:00,
2013-03-30 12:40:00,55.1,31.0,30.09,West,270,5.4,6.3,41,0.00,,,0.00,697,TxWx,2013-03-30 17:40:00,
2013-03-30 12:45:00,54.3,29.0,30.09,WSW,256,11.4,12.3,40,0.00,,,0.00,655,TxWx,2013-03-30 17:45:00,
2013-03-30 12:50:00,54.1,29.0,30.09,SSW,209,13.5,14.1,40,0.00,,,0.00,648,TxWx,2013-03-30 17:50:00,
2013-03-30 12:55:00,54.5,29.0,30.09,SSW,205,6.6,6.6,40,0.00,,,0.00,652,TxWx,2013-03-30 17:55:00,
2013-03-30 13:00:00,54.5,29.0,30.09,SSW,198,9.9,9.9,40,0.00,,,0.00,640,TxWx,2013-03-30 18:00:00,
2013-03-30 13:05:00,55.3,30.0,30.09,South,172,4.8,5.1,40,0.00,,,0.00,640,TxWx,2013-03-30 18:05:00,
2013-03-30 13:11:00,54.9,29.0,30.08,WSW,239,6.3,6.6,39,0.00,,,0.00,591,TxWx,2013-03-30 18:11:00,
2013-03-30 13:16:00,54.6,29.0,30.08,SW,226,11.1,12.0,39,0.00,,,0.00,586,TxWx,2013-03-30 18:16:00,
2013-03-30 13:21:00,54.9,29.0,30.08,SW,232,11.1,11.1,39,0.00,,,0.00,632,TxWx,2013-03-30 18:21:00,
2013-03-30 13:26:00,55.6,31.0,30.08,SW,224,10.8,11.1,40,0.00,,,0.00,599,TxWx,2013-03-30 18:26:00,
2013-03-30 13:31:00,55.7,30.0,30.07,SSW,198,11.4,14.7,39,0.00,,,0.00,599,TxWx,2013-03-30 18:31:00,
2013-03-30 13:36:00,55.3,29.0,30.06,SW,231,9.6,10.8,39,0.00,,,0.00,560,TxWx,2013-03-30 18:36:00,
2013-03-30 13:42:00,55.3,29.0,30.06,South,177,9.6,11.7,39,0.00,,,0.00,566,TxWx,2013-03-30 18:42:00,
2013-03-30 13:47:00,55.7,30.0,30.06,SW,236,4.8,6.0,39,0.00,,,0.00,571,TxWx,2013-03-30 18:47:00,
2013-03-30 13:52:00,55.6,30.0,30.05,South,187,8.7,12.0,39,0.00,,,0.00,587,TxWx,2013-03-30 18:52:00,
2013-03-30 13:57:00,55.8,30.0,30.05,WSW,239,10.2,10.2,39,0.00,,,0.00,574,TxWx,2013-03-30 18:57:00,
2013-03-30 14:02:00,55.9,30.0,30.05,South,172,4.5,5.7,39,0.00,,,0.00,554,TxWx,2013-03-30 19:02:00,
2013-03-30 14:08:00,56.4,30.0,30.04,SSE,163,6.6,6.9,39,0.00,,,0.00,556,TxWx,2013-03-30 19:08:00,
2013-03-30 14:13:00,56.5,31.0,30.04,SW,234,7.8,11.4,38,0.00,,,0.00,563,TxWx,2013-03-30 19:13:00,
2013-03-30 14:18:00,56.3,30.0,30.04,SSW,213,11.4,11.7,38,0.00,,,0.00,553,TxWx,2013-03-30 19:18:00,
2013-03-30 14:23:00,56.8,32.0,30.04,SSW,212,12.0,12.0,39,0.00,,,0.00,563,TxWx,2013-03-30 19:23:00,
2013-03-30 14:28:00,56.5,31.0,30.03,SSW,213,6.6,6.6,38,0.00,,,0.00,571,TxWx,2013-03-30 19:28:00,
2013-03-30 14:33:00,56.5,30.0,30.03,South,174,4.8,5.4,38,0.00,,,0.00,517,TxWx,2013-03-30 19:33:00,
2013-03-30 14:39:00,56.5,30.0,30.03,SSE,163,6.6,6.6,38,0.00,,,0.00,499,TxWx,2013-03-30 19:39:00,
2013-03-30 14:44:00,56.8,30.0,30.03,SSW,205,11.4,11.4,38,0.00,,,0.00,472,TxWx,2013-03-30 19:44:00,
2013-03-30 14:49:00,56.0,29.0,30.03,SSE,150,4.8,6.0,38,0.00,,,0.00,499,TxWx,2013-03-30 19:49:00,
2013-03-30 14:54:00,56.6,31.0,30.03,SSW,212,11.1,11.1,39,0.00,,,0.00,500,TxWx,2013-03-30 19:54:00,
2013-03-30 14:59:00,56.2,29.0,30.02,SSW,200,8.4,9.6,38,0.00,,,0.00,511,TxWx,2013-03-30 19:59:00,
2013-03-30 15:05:00,56.3,30.0,30.02,SW,223,8.1,8.1,38,0.00,,,0.00,488,TxWx,2013-03-30 20:05:00,
2013-03-30 15:10:00,56.3,29.0,30.02,SSW,197,11.1,13.5,37,0.00,,,0.00,521,TxWx,2013-03-30 20:10:00,
2013-03-30 15:15:00,56.5,30.0,30.02,SSW,197,6.6,6.9,38,0.00,,,0.00,423,TxWx,2013-03-30 20:15:00,
2013-03-30 15:20:00,56.4,29.0,30.01,SW,221,8.4,8.4,38,0.00,,,0.00,404,TxWx,2013-03-30 20:20:00,
2013-03-30 15:25:00,56.6,30.0,30.01,SSW,206,3.9,4.8,38,0.00,,,0.00,421,TxWx,2013-03-30 20:25:00,
2013-03-30 15:30:00,56.4,29.0,30.01,SSW,211,9.3,9.9,37,0.00,,,0.00,423,TxWx,2013-03-30 20:30:00,
2013-03-30 15:36:00,56.5,30.0,30.01,SW,217,7.8,7.8,38,0.00,,,0.00,452,TxWx,2013-03-30 20:36:00,
2013-03-30 15:41:00,56.3,30.0,30.01,SSW,211,9.3,10.8,38,0.00,,,0.00,410,TxWx,2013-03-30 20:41:00,
2013-03-30 15:46:00,56.6,30.0,30.00,SW,222,12.6,12.6,38,0.00,,,0.00,510,TxWx,2013-03-30 20:46:00,
2013-03-30 15:51:00,56.5,30.0,30.00,SSW,207,9.9,12.0,38,0.00,,,0.00,437,TxWx,2013-03-30 20:51:00,
2013-03-30 15:56:00,56.5,30.0,30.00,SW,215,6.0,6.0,38,0.00,,,0.00,359,TxWx,2013-03-30 20:56:00,
2013-03-30 16:02:00,56.2,30.0,30.00,SSW,210,5.7,8.4,38,0.00,,,0.00,387,TxWx,2013-03-30 21:02:00,
2013-03-30 16:07:00,56.6,31.0,30.00,SW,214,10.2,11.4,38,0.00,,,0.00,393,TxWx,2013-03-30 21:07:00,
2013-03-30 16:12:00,56.6,31.0,30.00,SW,234,7.8,7.8,39,0.00,,,0.00,366,TxWx,2013-03-30 21:12:00,
2013-03-30 16:17:00,56.5,32.0,29.99,SSW,211,11.1,11.1,39,0.00,,,0.00,293,TxWx,2013-03-30 21:17:00,
2013-03-30 16:22:00,56.2,31.0,29.99,WSW,243,4.8,5.4,40,0.00,,,0.00,254,TxWx,2013-03-30 21:22:00,
2013-03-30 16:27:00,56.0,30.0,29.99,SW,217,13.2,16.8,39,0.00,,,0.00,215,TxWx,2013-03-30 21:27:00,
2013-03-30 16:33:00,55.9,30.0,29.99,WSW,251,7.8,8.4,39,0.00,,,0.00,228,TxWx,2013-03-30 21:33:00,
2013-03-30 16:38:00,56.1,30.0,29.99,SW,224,8.1,9.3,39,0.00,,,0.00,255,TxWx,2013-03-30 21:38:00,
2013-03-30 16:43:00,56.1,30.0,29.99,SSE,156,5.4,6.3,39,0.00,,,0.00,254,TxWx,2013-03-30 21:43:00,
2013-03-30 16:48:00,55.9,31.0,29.99,SW,218,14.1,14.4,40,0.00,,,0.00,206,TxWx,2013-03-30 21:48:00,
2013-03-30 16:53:00,55.9,31.0,29.98,SW,234,5.1,5.1,40,0.00,,,0.00,182,TxWx,2013-03-30 21:53:00,
2013-03-30 16:58:00,55.6,31.0,29.98,South,185,11.4,13.8,40,0.00,,,0.00,175,TxWx,2013-03-30 21:58:00,
2013-03-30 17:03:00,55.5,31.0,29.98,SSW,213,18.0,18.0,40,0.00,,,0.00,178,TxWx,2013-03-30 22:03:00,
2013-03-30 17:09:00,55.6,31.0,29.98,SSW,202,7.2,8.4,40,0.00,,,0.00,169,TxWx,2013-03-30 22:09:00,
2013-03-30 17:14:00,55.5,30.0,29.98,South,185,7.2,9.3,40,0.00,,,0.00,153,TxWx,2013-03-30 22:14:00,
2013-03-30 17:19:00,55.5,30.0,29.98,SW,219,9.9,9.9,40,0.00,,,0.00,147,TxWx,2013-03-30 22:19:00,
2013-03-30 17:24:00,55.5,30.0,29.98,SW,217,8.1,8.1,41,0.00,,,0.00,148,TxWx,2013-03-30 22:24:00,
2013-03-30 17:29:00,55.3,30.0,29.97,SW,220,7.8,8.1,41,0.00,,,0.00,128,TxWx,2013-03-30 22:29:00,
2013-03-30 17:35:00,55.2,31.0,29.97,SSW,213,14.1,14.1,41,0.00,,,0.00,114,TxWx,2013-03-30 22:35:00,
2013-03-30 17:40:00,55.3,31.0,29.98,SSE,161,3.9,4.2,41,0.00,,,0.00,101,TxWx,2013-03-30 22:40:00,
2013-03-30 17:45:00,55.1,31.0,29.97,SSW,206,7.2,7.2,41,0.00,,,0.00,97,TxWx,2013-03-30 22:45:00,
2013-03-30 17:50:00,55.0,30.0,29.97,SSW,212,10.2,10.2,41,0.00,,,0.00,88,TxWx,2013-03-30 22:50:00,
2013-03-30 17:55:00,54.9,31.0,29.97,SW,217,11.1,11.4,41,0.00,,,0.00,77,TxWx,2013-03-30 22:55:00,
2013-03-30 18:00:00,54.8,32.0,29.97,South,180,6.3,7.2,42,0.00,,,0.00,67,TxWx,2013-03-30 23:00:00,
2013-03-30 18:05:00,54.7,31.0,29.97,SSW,201,8.4,9.6,41,0.00,,,0.00,67,TxWx,2013-03-30 23:05:00,
2013-03-30 18:11:00,54.5,31.0,29.97,SW,219,7.8,8.1,42,0.00,,,0.00,53,TxWx,2013-03-30 23:11:00,
2013-03-30 18:16:00,54.4,30.0,29.97,South,188,13.2,13.2,42,0.00,,,0.00,45,TxWx,2013-03-30 23:16:00,
2013-03-30 18:22:00,54.3,30.0,29.97,SW,214,9.6,9.9,42,0.00,,,0.00,42,TxWx,2013-03-30 23:22:00,
2013-03-30 18:27:00,54.2,31.0,29.96,SSW,196,7.5,7.5,43,0.00,,,0.00,41,TxWx,2013-03-30 23:27:00,
2013-03-30 18:32:00,54.1,32.0,29.96,SSW,200,3.6,4.2,44,0.00,,,0.00,37,TxWx,2013-03-30 23:32:00,
2013-03-30 18:37:00,54.0,33.0,29.96,SSW,199,7.8,8.7,44,0.00,,,0.00,39,TxWx,2013-03-30 23:37:00,
2013-03-30 18:42:00,54.0,33.0,29.96,SSW,212,4.5,4.5,45,0.00,,,0.00,31,TxWx,2013-03-30 23:42:00,
2013-03-30 18:47:00,53.8,33.0,29.96,SW,222,10.8,10.8,45,0.00,,,0.00,22,TxWx,2013-03-30 23:47:00,
2013-03-30 18:52:00,53.7,34.0,29.96,West,279,3.0,3.0,46,0.00,,,0.00,14,TxWx,2013-03-30 23:52:00,
2013-03-30 18:57:00,53.5,34.0,29.96,WSW,249,5.4,6.0,46,0.00,,,0.00,10,TxWx,2013-03-30 23:57:00,
2013-03-30 19:02:00,53.4,33.0,29.96,WSW,251,6.0,6.0,47,0.00,,,0.00,7,TxWx,2013-03-31 00:02:00,
2013-03-30 19:07:00,53.3,33.0,29.96,SSW,212,7.8,8.4,46,0.00,,,0.00,3,TxWx,2013-03-31 00:07:00,
2013-03-30 19:12:00,53.2,32.0,29.95,SSW,201,9.3,9.3,46,0.00,,,0.00,0,TxWx,2013-03-31 00:12:00,
2013-03-30 19:17:00,53.1,33.0,29.95,SSW,203,6.6,6.6,46,0.00,,,0.00,0,TxWx,2013-03-31 00:17:00,
2013-03-30 19:22:00,53.0,33.0,29.95,SSW,201,7.2,7.2,46,0.00,,,0.00,0,TxWx,2013-03-31 00:22:00,
2013-03-30 19:28:00,52.9,33.0,29.95,SW,220,7.2,7.8,46,0.00,,,0.00,0,TxWx,2013-03-31 00:28:00,
2013-03-30 19:33:00,52.8,33.0,29.95,WSW,242,6.3,6.6,47,0.00,,,0.00,0,TxWx,2013-03-31 00:33:00,
2013-03-30 19:38:00,52.6,33.0,29.95,WSW,256,4.5,4.8,47,0.00,,,0.00,0,TxWx,2013-03-31 00:38:00,
2013-03-30 19:43:00,52.4,33.0,29.95,SW,223,4.8,5.1,48,0.00,,,0.00,0,TxWx,2013-03-31 00:43:00,
2013-03-30 19:49:00,52.4,33.0,29.95,SW,229,6.0,6.0,48,0.00,,,0.00,0,TxWx,2013-03-31 00:49:00,
2013-03-30 19:54:00,52.3,33.0,29.95,SW,216,3.0,3.0,49,0.00,,,0.00,0,TxWx,2013-03-31 00:54:00,
2013-03-30 19:59:00,52.1,33.0,29.95,SW,218,3.3,3.3,49,0.00,,,0.00,0,TxWx,2013-03-31 00:59:00,
2013-03-30 20:05:00,52.1,33.0,29.95,SW,233,5.4,5.4,49,0.00,,,0.00,0,TxWx,2013-03-31 01:05:00,
2013-03-30 20:10:00,52.0,34.0,29.95,WSW,245,5.1,5.1,50,0.00,,,0.00,0,TxWx,2013-03-31 01:10:00,
2013-03-30 20:15:00,52.0,34.0,29.95,SW,232,3.6,3.6,50,0.00,,,0.00,0,TxWx,2013-03-31 01:15:00,
2013-03-30 20:20:00,51.9,34.0,29.95,SW,234,5.7,5.7,50,0.00,,,0.00,0,TxWx,2013-03-31 01:20:00,
2013-03-30 20:25:00,51.7,34.0,29.95,West,274,2.7,3.6,51,0.00,,,0.00,0,TxWx,2013-03-31 01:25:00,
2013-03-30 20:30:00,51.6,34.0,29.95,WSW,244,8.1,8.4,51,0.00,,,0.00,0,TxWx,2013-03-31 01:30:00,
2013-03-30 20:35:00,51.5,34.0,29.95,WSW,247,3.6,3.9,52,0.00,,,0.00,0,TxWx,2013-03-31 01:35:00,
2013-03-30 20:40:00,51.4,34.0,29.95,SW,229,2.7,2.7,52,0.00,,,0.00,0,TxWx,2013-03-31 01:40:00,
2013-03-30 20:46:00,51.3,34.0,29.94,SW,233,3.3,3.3,52,0.00,,,0.00,0,TxWx,2013-03-31 01:46:00,
2013-03-30 20:51:00,51.2,34.0,29.94,SSW,195,3.3,3.3,53,0.00,,,0.00,0,TxWx,2013-03-31 01:51:00,
2013-03-30 20:56:00,51.1,34.0,29.94,SW,228,2.4,3.0,53,0.00,,,0.00,0,TxWx,2013-03-31 01:56:00,
2013-03-30 21:01:00,51.0,34.0,29.94,SW,214,1.8,2.1,53,0.00,,,0.00,0,TxWx,2013-03-31 02:01:00,
2013-03-30 21:06:00,51.0,34.0,29.94,West,273,2.4,3.3,53,0.00,,,0.00,0,TxWx,2013-03-31 02:06:00,
2013-03-30 21:11:00,50.9,35.0,29.94,SW,230,4.2,4.2,54,0.00,,,0.00,0,TxWx,2013-03-31 02:11:00,
2013-03-30 21:16:00,50.9,35.0,29.94,SW,232,2.7,3.0,54,0.00,,,0.00,0,TxWx,2013-03-31 02:16:00,
2013-03-30 21:21:00,50.8,35.0,29.94,SW,231,3.6,3.9,54,0.00,,,0.00,0,TxWx,2013-03-31 02:21:00,
2013-03-30 21:26:00,50.7,35.0,29.94,SSW,210,3.3,3.6,54,0.00,,,0.00,0,TxWx,2013-03-31 02:26:00,
2013-03-30 21:31:00,50.6,35.0,29.94,SSW,196,6.3,6.3,55,0.00,,,0.00,0,TxWx,2013-03-31 02:31:00,
2013-03-30 21:37:00,50.6,35.0,29.93,South,179,3.3,3.6,55,0.00,,,0.00,0,TxWx,2013-03-31 02:37:00,
2013-03-30 21:42:00,50.5,35.0,29.93,West,265,4.5,4.5,55,0.00,,,0.00,0,TxWx,2013-03-31 02:42:00,
2013-03-30 21:47:00,50.5,35.0,29.93,SSW,193,6.0,6.3,56,0.00,,,0.00,0,TxWx,2013-03-31 02:47:00,
2013-03-30 21:52:00,50.4,35.0,29.93,South,183,5.4,6.0,56,0.00,,,0.00,0,TxWx,2013-03-31 02:52:00,
2013-03-30 21:57:00,50.3,35.0,29.93,SSW,210,3.9,4.2,56,0.00,,,0.00,0,TxWx,2013-03-31 02:57:00,
2013-03-30 22:02:00,50.3,35.0,29.92,SSW,203,4.5,4.5,57,0.00,,,0.00,0,TxWx,2013-03-31 03:02:00,
2013-03-30 22:08:00,50.2,35.0,29.92,SW,219,5.7,6.0,57,0.00,,,0.00,0,TxWx,2013-03-31 03:08:00,
2013-03-30 22:13:00,50.1,35.0,29.92,SSW,209,7.2,7.5,57,0.00,,,0.00,0,TxWx,2013-03-31 03:13:00,
2013-03-30 22:18:00,50.2,35.0,29.92,WSW,239,4.8,4.8,57,0.00,,,0.00,0,TxWx,2013-03-31 03:18:00,
2013-03-30 22:23:00,50.1,36.0,29.92,SSW,201,6.6,6.9,58,0.00,,,0.00,0,TxWx,2013-03-31 03:23:00,
2013-03-30 22:29:00,50.0,36.0,29.92,SW,215,4.2,4.5,58,0.00,,,0.00,0,TxWx,2013-03-31 03:29:00,
2013-03-30 22:34:00,49.9,36.0,29.92,SW,225,6.3,6.3,58,0.00,,,0.00,0,TxWx,2013-03-31 03:34:00,
2013-03-30 22:39:00,49.7,36.0,29.92,SSW,210,2.7,2.7,59,0.00,,,0.00,0,TxWx,2013-03-31 03:39:00,
2013-03-30 22:44:00,49.6,36.0,29.91,SSW,207,4.5,5.1,59,0.00,,,0.00,0,TxWx,2013-03-31 03:44:00,
2013-03-30 22:49:00,49.3,35.0,29.91,SSW,205,3.0,3.6,60,0.00,,,0.00,0,TxWx,2013-03-31 03:49:00,
2013-03-30 22:54:00,49.1,36.0,29.91,SSW,204,2.7,2.7,60,0.00,,,0.00,0,TxWx,2013-03-31 03:54:00,
2013-03-30 23:00:00,48.9,36.0,29.91,South,189,3.0,3.9,61,0.00,,,0.00,0,TxWx,2013-03-31 04:00:00,
2013-03-30 23:05:00,48.8,36.0,29.90,SW,221,2.4,2.4,61,0.00,,,0.00,0,TxWx,2013-03-31 04:05:00,
2013-03-30 23:10:00,48.8,36.0,29.90,SSW,204,3.3,3.3,61,0.00,,,0.00,0,TxWx,2013-03-31 04:10:00,
2013-03-30 23:15:00,48.7,36.0,29.90,SW,230,4.8,5.1,61,0.00,,,0.00,0,TxWx,2013-03-31 04:15:00,
2013-03-30 23:20:00,48.6,36.0,29.90,SW,236,2.1,2.4,61,0.00,,,0.00,0,TxWx,2013-03-31 04:20:00,
2013-03-30 23:25:00,48.6,36.0,29.90,SSW,195,2.4,2.7,61,0.00,,,0.00,0,TxWx,2013-03-31 04:25:00,
2013-03-30 23:31:00,48.6,36.0,29.90,SW,223,5.1,5.4,61,0.00,,,0.00,0,TxWx,2013-03-31 04:31:00,
2013-03-30 23:36:00,48.6,36.0,29.89,SSW,207,2.1,2.1,61,0.00,,,0.00,0,TxWx,2013-03-31 04:36:00,
2013-03-30 23:41:00,48.6,36.0,29.88,South,170,1.8,1.8,62,0.00,,,0.00,0,TxWx,2013-03-31 04:41:00,
2013-03-30 23:47:00,48.6,36.0,29.88,SSW,199,5.7,5.7,62,0.00,,,0.00,0,TxWx,2013-03-31 04:47:00,
2013-03-30 23:52:00,48.7,37.0,29.88,SSW,210,5.1,5.1,62,0.00,,,0.00,0,TxWx,2013-03-31 04:52:00,
2013-03-30 23:57:00,48.6,37.0,29.88,SSW,209,3.3,3.3,62,0.00,,,0.00,0,TxWx,2013-03-31 04:57:00,